NM5PB-13 Weather Reports


time (UTC)temp
C
wind
direction
speed
KPH
gust
KPH
rain 1hr
cm
rain 24hr
cm
rain mn
cm
humidity
%
barometer
mb
20260503025807 10 51 0.0 1.6 0.00 0.00 0.00 52 1015.0
20260503024301 10 53 0.0 1.6 0.00 0.00 0.00 51 1015.0
20260503022758 11 47 0.0 1.6 0.00 0.00 0.00 51 1015.0
20260503021254 11 59 0.0 1.6 0.00 0.00 0.00 50 1015.0
20260503015750 11 46 0.0 1.6 0.00 0.00 0.00 50 1015.0
20260503014246 11 42 0.0 1.6 0.00 0.00 0.00 48 1015.0
20260503012741 12 52 1.6 1.6 0.00 0.00 0.00 47 1015.0
20260503011238 13 67 0.0 0.0 0.00 0.00 0.00 46 1015.0
20260503005735 13 77 1.6 3.2 0.00 0.00 0.00 44 1015.0
20260503004230 14 78 1.6 1.6 0.00 0.00 0.00 42 1015.0
20260503002727 14 78 3.2 4.8 0.00 0.00 0.00 41 1015.0
20260503001223 15 66 1.6 3.2 0.00 0.00 0.00 40 1015.0
20260502235719 15 65 1.6 3.2 0.00 0.00 0.00 39 1015.0
20260502234213 15 52 1.6 3.2 0.00 0.00 0.00 38 1015.0
20260502232710 15 87 1.6 3.2 0.00 0.00 0.00 39 1016.0
20260502231206 15 65 3.2 6.4 0.00 0.00 0.00 37 1016.0
20260502225659 16 56 1.6 3.2 0.00 0.00 0.00 37 1016.0
20260502224155 16 69 1.6 3.2 0.00 0.00 0.00 37 1016.0
20260502222650 16 73 1.6 3.2 0.00 0.00 0.00 37 1016.0
20260502221146 16 97 1.6 4.8 0.00 0.00 0.00 36 1016.0
20260502215639 16 63 3.2 6.4 0.00 0.00 0.00 37 1016.0
20260502214133 16 96 1.6 3.2 0.00 0.00 0.00 38 1016.0
20260502212630 16 75 3.2 6.4 0.00 0.00 0.00 37 1016.0
20260502211126 16 88 1.6 4.8 0.00 0.00 0.00 37 1016.0
20260502205619 16 95 1.6 3.2 0.00 0.00 0.00 37 1017.0
20260502204115 16 47 1.6 3.2 0.00 0.00 0.00 36 1017.0
20260502202610 16 70 1.6 3.2 0.00 0.00 0.00 36 1017.0
20260502201107 15 69 3.2 4.8 0.00 0.00 0.00 36 1017.0
20260502195605 15 71 3.2 6.4 0.00 0.00 0.00 37 1018.0
20260502194102 15 62 3.2 4.8 0.00 0.00 0.00 38 1018.0
20260502192558 15 84 1.6 3.2 0.00 0.00 0.00 39 1018.0
20260502191054 15 65 1.6 3.2 0.00 0.00 0.00 38 1018.0
20260502185550 15 354 1.6 4.8 0.00 0.00 0.00 40 1018.0
20260502184045 14 72 3.2 4.8 0.00 0.00 0.00 37 1018.0
20260502182542 13 180 0.0 1.6 0.00 0.00 0.00 39 1019.0
20260502181039 14 53 1.6 3.2 0.00 0.00 0.00 38 1019.0
20260502164013 12 75 1.6 6.4 0.00 0.00 0.00 45 1019.0
20260502162507 12 53 3.2 6.4 0.00 0.00 0.00 42 1020.0
20260502161004 12 61 1.6 6.4 0.00 0.00 0.00 43 1020.0
20260502150945 11 83 0.0 1.6 0.00 0.00 0.00 52 1020.0
20260502122327 1 286 0.0 0.0 0.00 0.00 0.00 94 1020.0
20260502120823 0 260 0.0 0.0 0.00 0.00 0.00 94 1020.0
20260502115313 0 268 0.0 0.0 0.00 0.00 0.00 94 1020.0
20260502113800 0 0 0.0 0.0 0.00 0.00 0.00 94 1020.0
20260502112243 0 0 0.0 0.0 0.00 0.00 0.00 94 1020.0
20260502110728 0 297 0.0 0.0 0.00 0.00 0.00 93 1020.0
20260502105221 0 0 0.0 0.0 0.00 0.00 0.00 93 1020.0
20260502103714 0 249 0.0 0.0 0.00 0.00 0.00 93 1019.0
20260502102203 0 0 0.0 0.0 0.00 0.00 0.00 93 1019.0
20260502100659 0 260 0.0 0.0 0.00 0.00 0.00 92 1019.0
20260502090643 0 0 0.0 0.0 0.00 0.00 0.00 90 1019.0
20260502070614 2 0 0.0 0.0 0.00 0.00 0.00 78 1020.0
20260502065109 2 256 0.0 0.0 0.00 0.00 0.00 77 1020.0
20260502063607 3 218 0.0 0.0 0.00 0.00 0.00 76 1019.0
20260502062103 2 0 0.0 0.0 0.00 0.00 0.00 74 1020.0
20260502060601 2 309 0.0 0.0 0.00 0.00 0.00 75 1020.0
20260502055055 2 338 0.0 0.0 0.00 0.00 0.00 77 1020.0
20260502053552 2 271 0.0 0.0 0.00 0.00 0.00 78 1019.0
20260502052048 2 0 0.0 0.0 0.00 0.00 0.00 78 1019.0
20260502050543 2 261 0.0 0.0 0.00 0.00 0.00 76 1019.0
20260502045038 2 0 0.0 0.0 0.00 0.00 0.00 77 1019.0
20260502043535 3 287 0.0 0.0 0.00 0.00 0.00 75 1019.0
20260502042031 3 178 0.0 0.0 0.00 0.00 0.00 78 1019.0
20260502040527 3 0 0.0 0.0 0.00 0.00 0.00 77 1019.0
20260502035021 4 6 0.0 0.0 0.00 0.00 0.00 73 1019.0
20260502033518 5 334 0.0 0.0 0.00 0.00 0.00 70 1019.0
20260502032015 6 215 0.0 1.6 0.00 0.00 0.00 66 1019.0